Bangor, ME

1:22 PM EDT on March 28, 2017 (GMT -0400)
Bangor International

Weather History for KBGR - March, 2013

Change the Weather History Date:

Thursday, March 28, 2013

  Actual Average Record
Temperature  
Mean Temperature 42 °F 35 °F  
Max Temperature 50 °F 44 °F 65 °F (1989)
Min Temperature 33 °F 25 °F 9 °F (1974)
Degree Days  
Heating Degree Days 23 30  
Month to date heating degree days 924 988  
Since 1 July heating degree days 6301 6634  
Cooling Degree Days 0 0  
Month to date cooling degree days 0 0  
Year to date cooling degree days 0 0  
Moisture  
Dew Point 30 °F    
Average Humidity 69    
Maximum Humidity 96    
Minimum Humidity 42    
Precipitation  
Precipitation 0.01 in 0.12 in 1.48 in (2005)
Month to date precipitation 2.05 3.02  
Year to date precipitation 4.96 8.43  
Snow  
Snow 0.00 in 0.30 in 1.80 in (2008)
Month to date snowfall 13.7 10.9  
Since 1 July snowfall 73.2 61.6  
Snow Depth T in    
Sea Level Pressure  
Sea Level Pressure 29.89 in    
Wind  
Wind Speed 5 mph (NNW)    
Max Wind Speed 17 mph    
Max Gust Speed 21 mph    
Visibility 10 miles    
Events Rain    
T = Trace of Precipitation, MM = Missing Value Source: NWS Daily Summary

Daily Weather History Graph

Daily Weather History Graph

Search for Another Location

Airport or City:

Trip Planner

Search our weather history database for the weather conditions in past years. The results will help you decide how hot, cold, wet, or windy it might be!

Date:

Astronomy

Mar. 28, 2013 Rise Set
Actual Time 6:23 AM EDT 6:58 PM EDT
Civil Twilight 5:53 AM EDT 7:27 PM EDT
Nautical Twilight 5:18 AM EDT 8:02 PM EDT
Astronomical Twilight 4:42 AM EDT 8:38 PM EDT
Moon 8:52 PM EDT 6:44 AM EDT
Length of Visible Light 13h 33m
Length of Day
12h 35m
Full, 98% of the Moon is Illuminated
Mar 28
Full
Apr 3
Last Quarter
Apr 10
New
Apr 18
First Quarter
Apr 25
Full

Hourly Weather History & Observations

Time (EDT) Temp. Windchill Dew Point Humidity Pressure Visibility Wind Dir Wind Speed Gust Speed Precip Events Conditions
12:53 AM 35.1 °F 30.1 °F 32.0 °F 89% 29.86 in 10.0 mi North 5.8 mph - N/A   Overcast
1:53 AM 34.0 °F 27.2 °F 32.0 °F 92% 29.86 in 10.0 mi North 8.1 mph - N/A   Overcast
2:53 AM 33.1 °F 27.7 °F 30.9 °F 92% 29.86 in 10.0 mi North 5.8 mph - N/A   Scattered Clouds
3:53 AM 33.1 °F 26.9 °F 30.9 °F 92% 29.87 in 10.0 mi North 6.9 mph - N/A   Overcast
4:53 AM 34.0 °F 29.8 °F 30.9 °F 89% 29.86 in 10.0 mi NNW 4.6 mph - N/A   Overcast
5:53 AM 34.0 °F 29.8 °F 30.9 °F 89% 29.87 in 10.0 mi NNW 4.6 mph - N/A   Overcast
6:53 AM 35.1 °F 32.2 °F 30.9 °F 85% 29.88 in 10.0 mi NNW 3.5 mph - N/A   Overcast
7:53 AM 34.0 °F - 30.9 °F 89% 29.90 in 10.0 mi Calm Calm - N/A   Overcast
8:53 AM 35.1 °F 32.2 °F 32.0 °F 89% 29.91 in 10.0 mi ESE 3.5 mph - N/A   Overcast
9:53 AM 37.0 °F 34.5 °F 32.0 °F 82% 29.91 in 10.0 mi North 3.5 mph - N/A   Overcast
10:53 AM 39.9 °F - 34.0 °F 79% 29.92 in 10.0 mi Calm Calm - N/A   Overcast
11:53 AM 45.0 °F 42.6 °F 35.1 °F 68% 29.90 in 10.0 mi NNW 4.6 mph - N/A   Mostly Cloudy
12:53 PM 44.1 °F 38.1 °F 34.0 °F 68% 29.90 in 10.0 mi North 11.5 mph 17.3 mph 0.01 in Rain Light Rain
1:53 PM 46.9 °F - 30.9 °F 54% 29.88 in 10.0 mi Calm Calm - 0.00 in   Mostly Cloudy
2:53 PM 48.0 °F - 28.9 °F 48% 29.88 in 10.0 mi NNE 10.4 mph - N/A   Mostly Cloudy
3:53 PM 50.0 °F - 28.0 °F 43% 29.87 in 10.0 mi North 9.2 mph - N/A   Mostly Cloudy
4:53 PM 48.9 °F - 26.1 °F 41% 29.87 in 10.0 mi North 11.5 mph - N/A   Mostly Cloudy
5:53 PM 48.0 °F - 26.1 °F 42% 29.88 in 10.0 mi NNE 3.5 mph - N/A   Mostly Cloudy
6:53 PM 42.1 °F - 27.0 °F 55% 29.90 in 10.0 mi Calm Calm - N/A   Mostly Cloudy
7:53 PM 37.0 °F - 27.0 °F 67% 29.92 in 10.0 mi Calm Calm - N/A   Scattered Clouds
8:53 PM 39.9 °F 37.8 °F 27.0 °F 60% 29.92 in 10.0 mi WNW 3.5 mph - N/A   Overcast
9:53 PM 42.1 °F 39.2 °F 30.0 °F 62% 29.93 in 10.0 mi WNW 4.6 mph - N/A   Mostly Cloudy
10:53 PM 39.0 °F 34.8 °F 28.9 °F 67% 29.92 in 10.0 mi West 5.8 mph - N/A   Mostly Cloudy
11:53 PM 41.0 °F 34.7 °F 30.9 °F 67% 29.93 in 10.0 mi NW 10.4 mph - N/A   Overcast